If you wish to contribute or participate in the discussions about articles you are invited to join SKYbrary as a registered user

 Actions

Ardabil Airport

From SKYbrary Wiki

OITL
Airport
ICAO: OITL – IATA: ADU
Summary
Name Ardabil Airport
Region Middle East
Territory Iran IR.gif
Location Gilan Deh, Ardabil
Serving Ardabil
Elevation 1,315.212 m
4,315 ft1,315.212 m
Coordinates 38° 19' 26.64" N, 48° 25' 12.54" E
Runways
Designator Length Width Surface ROPS
15/33 3299 m10,823.491 ft
45 m147.638 ft
PEM /


METAR
Observation OITL 231950Z 13004KT 6000 VCFG BKN003 BKN025 09/09 Q1023
Station Ardabil
Date/Time 23 October 2019 19:50:00
Wind direction 130°
Wind speed 04 kts
Lowest cloud amount broken clouds
Temperature 9°C
Dew point 9°C
Humidity 100%
QNH 1023 hPa
Weather condition n/a

Airport serving Ardabil in north-western Iran.

Climatology

Cold Semi-arid climate (Köppen climate classification BSk).

Maps

Terrain

Loading map...

Airport Layout

Loading map...


Accidents & Serious Incidents at or in vicinity of OITL

None on SKYbrary